Time,TemperatureF,DewpointF,PressureIn,WindDirection,WindDirectionDegrees,WindSpeedMPH,WindSpeedGustMPH,Humidity,HourlyPrecipIn,Conditions,Clouds,dailyrainin,SoftwareType,DateUTC
2013-07-12 00:00:00,73.2,68.1,32.48,SSE,158,2.0,5.1,84,0.00,,,0.00,VWS V13.00,2013-07-12 04:00:00,
2013-07-12 00:01:00,73.2,68.1,32.48,SSE,158,2.0,2.0,84,0.00,,,0.00,VWS V13.00,2013-07-12 04:01:00,
2013-07-12 00:02:00,73.2,68.1,32.48,SE,135,0.0,2.0,84,0.00,,,0.00,VWS V13.00,2013-07-12 04:02:00,
2013-07-12 00:07:00,73.2,68.1,32.48,SE,135,3.1,3.1,84,0.00,,,0.00,VWS V13.00,2013-07-12 04:07:00,
2013-07-12 00:12:00,73.0,67.9,32.48,SSE,158,0.0,4.4,84,0.00,,,0.00,VWS V13.00,2013-07-12 04:12:00,
2013-07-12 00:17:00,73.0,67.9,32.48,South,180,3.1,4.4,84,0.00,,,0.00,VWS V13.00,2013-07-12 04:17:00,
2013-07-12 00:20:00,72.8,67.7,32.48,ESE,112,1.1,4.4,84,0.00,,,0.00,VWS V13.00,2013-07-12 04:20:00,
2013-07-12 00:22:00,73.0,67.9,32.48,SSE,158,0.0,1.1,84,0.00,,,0.00,VWS V13.00,2013-07-12 04:22:00,
2013-07-12 00:27:00,72.6,67.5,32.48,South,180,1.3,1.3,84,0.00,,,0.00,VWS V13.00,2013-07-12 04:27:00,
2013-07-12 00:32:00,72.6,67.5,32.48,South,180,0.0,1.3,84,0.00,,,0.00,VWS V13.00,2013-07-12 04:32:00,
2013-07-12 00:37:00,72.6,67.8,32.48,South,180,0.0,1.3,85,0.00,,,0.00,VWS V13.00,2013-07-12 04:37:00,
2013-07-12 00:40:00,72.6,67.8,32.48,South,180,0.0,1.3,85,0.00,,,0.00,VWS V13.00,2013-07-12 04:40:00,
2013-07-12 00:42:00,72.6,67.8,32.48,SSW,202,0.0,0.0,85,0.00,,,0.00,VWS V13.00,2013-07-12 04:42:00,
2013-07-12 00:47:00,72.8,68.0,32.48,South,180,0.0,0.0,85,0.00,,,0.00,VWS V13.00,2013-07-12 04:47:00,
2013-07-12 00:52:00,72.6,67.8,32.48,SE,135,1.3,1.3,85,0.00,,,0.00,VWS V13.00,2013-07-12 04:52:00,
2013-07-12 00:57:00,72.3,67.5,32.48,SE,135,2.2,2.2,85,0.00,,,0.00,VWS V13.00,2013-07-12 04:57:00,
2013-07-12 01:00:00,72.3,67.9,32.48,SE,135,2.9,2.9,86,0.00,,,0.00,VWS V13.00,2013-07-12 05:00:00,
2013-07-12 01:02:00,72.3,67.9,32.48,SE,135,2.9,2.9,86,0.00,,,0.00,VWS V13.00,2013-07-12 05:02:00,
2013-07-12 01:07:00,71.7,67.3,32.48,South,180,2.4,2.9,86,0.00,,,0.00,VWS V13.00,2013-07-12 05:07:00,
2013-07-12 01:12:00,71.4,67.0,32.48,SSE,158,2.2,2.9,86,0.00,,,0.00,VWS V13.00,2013-07-12 05:12:00,
2013-07-12 01:17:00,71.4,67.3,32.48,South,180,0.0,2.9,87,0.00,,,0.00,VWS V13.00,2013-07-12 05:17:00,
2013-07-12 01:20:00,71.4,67.3,32.48,South,180,0.0,2.9,87,0.00,,,0.00,VWS V13.00,2013-07-12 05:20:00,
2013-07-12 01:22:00,71.4,67.3,32.48,SSE,158,0.0,0.0,87,0.00,,,0.00,VWS V13.00,2013-07-12 05:22:00,
2013-07-12 01:27:00,71.4,67.3,32.48,SE,135,0.8,1.1,87,0.00,,,0.00,VWS V13.00,2013-07-12 05:27:00,
2013-07-12 01:32:00,71.4,67.3,32.48,SSE,158,0.0,1.1,87,0.00,,,0.00,VWS V13.00,2013-07-12 05:32:00,
2013-07-12 01:37:00,71.2,67.1,32.48,SE,135,0.0,1.1,87,0.00,,,0.00,VWS V13.00,2013-07-12 05:37:00,
2013-07-12 01:40:00,71.0,66.9,32.48,SE,135,0.0,1.1,87,0.00,,,0.00,VWS V13.00,2013-07-12 05:40:00,
2013-07-12 01:42:00,70.8,66.7,32.48,SE,135,0.0,0.0,87,0.00,,,0.00,VWS V13.00,2013-07-12 05:42:00,
2013-07-12 01:47:00,70.7,66.7,32.48,South,180,0.0,2.2,87,0.00,,,0.00,VWS V13.00,2013-07-12 05:47:00,
2013-07-12 01:52:00,70.3,66.2,32.48,ENE,68,0.0,2.2,87,0.00,,,0.00,VWS V13.00,2013-07-12 05:52:00,
2013-07-12 01:57:00,70.3,66.6,32.48,ENE,68,0.0,2.2,88,0.00,,,0.00,VWS V13.00,2013-07-12 05:57:00,
2013-07-12 02:00:00,70.3,66.6,32.48,South,180,0.0,2.2,88,0.00,,,0.00,VWS V13.00,2013-07-12 06:00:00,
2013-07-12 02:02:00,70.3,66.6,32.48,South,180,0.0,0.0,88,0.00,,,0.00,VWS V13.00,2013-07-12 06:02:00,
2013-07-12 02:07:00,70.3,66.6,32.48,SSE,158,0.0,0.0,88,0.00,,,0.00,VWS V13.00,2013-07-12 06:07:00,
2013-07-12 02:12:00,70.1,66.4,32.48,SE,135,2.4,2.4,88,0.00,,,0.00,VWS V13.00,2013-07-12 06:12:00,
2013-07-12 02:17:00,69.6,65.9,32.48,SE,135,1.5,2.4,88,0.00,,,0.00,VWS V13.00,2013-07-12 06:17:00,
2013-07-12 02:20:00,69.6,65.9,32.48,SSE,158,2.0,2.4,88,0.00,,,0.00,VWS V13.00,2013-07-12 06:20:00,
2013-07-12 02:22:00,69.4,65.7,32.48,SSE,158,2.0,2.0,88,0.00,,,0.00,VWS V13.00,2013-07-12 06:22:00,
2013-07-12 02:27:00,68.7,65.0,32.48,SSE,158,0.0,2.0,88,0.00,,,0.00,VWS V13.00,2013-07-12 06:27:00,
2013-07-12 02:32:00,68.5,64.8,32.48,WSW,248,0.0,2.0,88,0.00,,,0.00,VWS V13.00,2013-07-12 06:32:00,
2013-07-12 02:37:00,68.3,64.9,32.48,SE,135,0.0,2.0,89,0.00,,,0.00,VWS V13.00,2013-07-12 06:37:00,
2013-07-12 02:40:00,68.3,64.9,32.48,SE,135,0.0,2.2,89,0.00,,,0.00,VWS V13.00,2013-07-12 06:40:00,
2013-07-12 02:42:00,68.3,64.9,32.48,SSE,158,0.0,0.0,89,0.00,,,0.00,VWS V13.00,2013-07-12 06:42:00,
2013-07-12 02:47:00,68.3,64.9,32.48,SSE,158,3.5,3.5,89,0.00,,,0.00,VWS V13.00,2013-07-12 06:47:00,
2013-07-12 02:52:00,68.1,64.7,32.48,SE,135,1.3,3.5,89,0.00,,,0.00,VWS V13.00,2013-07-12 06:52:00,
2013-07-12 02:57:00,68.1,64.7,32.48,SSE,158,1.7,3.5,89,0.00,,,0.00,VWS V13.00,2013-07-12 06:57:00,
2013-07-12 03:00:00,68.1,64.7,32.48,South,180,1.7,3.5,89,0.00,,,0.00,VWS V13.00,2013-07-12 07:00:00,
2013-07-12 03:02:00,68.1,64.7,32.48,South,180,1.7,1.7,89,0.00,,,0.00,VWS V13.00,2013-07-12 07:02:00,
2013-07-12 03:07:00,68.3,64.9,32.48,SE,135,0.0,1.7,89,0.00,,,0.00,VWS V13.00,2013-07-12 07:07:00,
2013-07-12 03:12:00,68.5,65.5,32.48,South,180,2.2,3.8,90,0.00,,,0.00,VWS V13.00,2013-07-12 07:12:00,
2013-07-12 03:17:00,68.7,65.7,32.48,SSE,158,2.2,3.8,90,0.00,,,0.00,VWS V13.00,2013-07-12 07:17:00,
2013-07-12 03:20:00,69.0,65.9,32.48,SSE,158,1.7,3.8,90,0.00,,,0.00,VWS V13.00,2013-07-12 07:20:00,
2013-07-12 03:22:00,69.0,65.9,32.48,SSE,158,1.7,1.7,90,0.00,,,0.00,VWS V13.00,2013-07-12 07:22:00,
2013-07-12 03:27:00,69.4,66.3,32.48,SSE,158,0.0,1.7,90,0.00,,,0.00,VWS V13.00,2013-07-12 07:27:00,
2013-07-12 10:35:00,70.9,68.1,0.00,NE,45,6.0,21.9,91,0.00,,,0.00,VWS V13.00,2013-07-12 14:35:00,